Погода в Большой Таябе

Россия / Чувашская Республика     55°14′32″N   47°55′07″E
темп.,
°C
ветер,
м/с
пор.,
м/с
влажн.,
%
обл.,
%
осадки,
мм/ч
давл.,
гПа
погр.,
м
17 сентября, пт
пт1700:00+7сз5970100 0.0 1014538
03:00+6сз4968100 0.0 1015433
06:00+6сз4865100 0.0 1015509
09:00+7сз5658100 0.0 10161124
12:00+9сз5647100 0.0 10161624
15:00+9сз5644100 0.0 10161557
18:00+8сз474899 0.0 1016429
21:00+5сз366695 0.1 1017169
18 сентября, сб
сб1800:00+3зсз38715 0.0 1017156
03:00+2сз49825 0.0 1018204
06:00+1сз399715 0.0 1020236
09:00+5ссз5779100 0.0 1020621
12:00+7ссз4665100 0.1 10211062
15:00+10с574490 0.2 10211703
18:00+5ссв125849 0.0 102211
21:00+3с34715 0.0 102453
19 сентября, вс
вс1900:00+3ссз377261 0.0 1024181
03:000с37855 0.0 1025120
06:000ссз3580100 0.0 102694
09:00+5сз3455100 0.0 1027651
12:00+9сз344211 0.0 10261148
15:00+10ссз333899 0.0 10251255
18:00+6с225398 0.0 102610
21:00+5ссв2257100 0.0 102612
20 сентября, пн
пн2000:00+4св3562100 0.0 1027104
03:00+2всв4779100 0.0 1028168
06:00+2всв4778100 0.0 1028211
09:00+6в5666100 0.0 1028504
12:00+8в5557100 0.0 1028850
15:00+8вюв4554100 0.0 1027760
18:00+7в4758100 0.0 1027297
21:00+6в3861100 0.0 1027260
21 сентября, вт
вт2100:00+7вюв3960100 0.0 1027361
03:00+7вюв4858100 0.0 1026330
06:00+7вюв4958100 0.0 1026334
09:00+10вюв684789 0.0 1026587
12:00+13юв674366 0.0 10261105
15:00+14юв574061 0.0 10251469
18:00+10в475114 0.0 1025120
21:00+8вюв4126060 0.0 1025255